Dewpoint
51 52 51 51 51 50 50 49 49 49 49 49 49 49 49 49 50 49 49 50 50 50 51 51 52 52 53 53 53 53 54 51 49 46 45 38 44 49 58 56 56 60 59 40 29 20 17 18 18 18 22 20 21 16 17 17 17 16 15 14 12 9 8 12 13 15 12 11 10 10 20 30 33 33 36 38 39 41 41 42 42 43 46 51 57 61 63 63
51 50 50 50 50 49 49 49 49 49 49 49 49 49 50 49 50 50 49 50 50 51 52 52 52 52 53 53 53 53 52 51 47 46 44 47 54 54 54 55 57 58 52 34 28 21 16 16 17 19 20 20 19 12 15 12 17 14 19 15 11 11 9 13 14 16 11 10 12 12 13 21 30 32 25 36 36 39 40 42 41 44 51 56 59 60 61 62
50 50 51 50 50 51 51 50 49 50 49 49 50 50 50 50 49 49 49 50 50 51 52 52 52 52 53 53 53 54 51 47 47 40 39 54 55 56 55 56 58 60 40 30 23 18 16 17 20 16 17 18 15 11 12 10 16 12 15 13 12 16 14 17 14 11 11 13 12 9 11 27 30 25 25 35 36 38 39 40 41 46 52 55 57 59 60 60
51 50 50 51 51 50 50 50 49 49 49 49 49 50 50 50 49 49 50 50 51 51 52 52 52 52 53 53 53 53 49 46 41 37 44 56 58 56 57 58 59 61 37 23 19 21 19 18 22 18 19 15 14 11 9 9 11 11 14 12 11 13 12 11 20 15 14 11 11 12 13 12 18 19 35 36 36 39 39 41 41 44 51 53 55 57 58 58
51 51 51 51 50 50 50 49 49 49 49 50 49 49 49 49 49 50 50 50 51 51 52 52 53 53 53 53 54 51 43 20 29 44 44 59 61 58 57 58 59 51 29 21 18 20 16 16 22 22 19 18 10 8 7 9 11 13 10 12 12 13 11 10 11 13 11 12 12 13 15 10 15 32 38 34 33 35 39 41 42 46 51 53 53 55 56 55
51 51 51 51 50 50 50 49 49 49 50 50 50 50 50 50 50 50 50 51 51 52 52 52 52 53 53 54 52 50 37 22 27 39 65 61 61 61 59 59 61 38 22 16 19 24 18 22 20 20 17 15 12 8 10 9 12 8 9 9 10 11 10 14 14 16 13 15 11 11 14 14 16 30 34 18 31 35 40 41 42 45 50 52 53 52 52 52
51 51 51 51 51 51 52 51 51 50 50 50 50 50 50 50 50 50 51 51 51 52 52 52 52 52 53 53 49 47 29 23 40 37 59 62 62 61 61 61 52 25 19 19 24 23 23 23 21 20 18 16 12 8 7 10 12 9 7 9 9 11 11 11 11 12 8 12 11 12 19 12 20 23 17 19 20 27 40 41 42 44 48 49 49 50 51 51
51 51 51 51 51 51 52 52 51 51 51 51 51 51 51 51 51 51 51 52 52 52 52 52 52 52 53 51 44 39 39 34 37 44 62 60 58 59 50 34 25 27 23 18 24 23 25 23 22 22 17 13 12 14 12 11 14 8 7 9 9 10 10 10 10 10 11 10 13 17 12 13 13 13 22 21 24 29 40 40 39 40 42 44 47 47 47 47
51 51 51 52 52 52 52 52 52 53 52 52 52 52 52 51 51 51 51 51 52 52 52 52 52 53 53 50 43 35 33 40 43 50 56 49 50 31 21 21 26 24 24 25 25 24 24 23 24 22 17 15 15 13 13 12 13 10 8 14 10 10 11 10 9 10 10 10 19 10 22 18 14 16 16 15 27 35 40 39 39 38 39 41 43 45 45 44
51 51 52 52 52 52 52 52 52 52 52 53 52 52 52 52 51 51 52 52 52 52 52 52 53 53 50 47 38 28 30 42 41 50 47 49 45 35 31 30 24 25 21 24 24 24 24 26 22 24 19 17 22 14 14 10 8 11 10 9 9 9 9 12 9 13 14 11 17 19 19 11 11 13 12 24 35 39 39 39 38 38 38 40 44 46 45 45
51 51 51 52 52 52 52 52 52 52 53 52 52 52 52 52 52 52 52 52 52 52 53 53 53 52 48 47 29 27 35 25 41 44 45 46 38 27 25 33 24 22 21 25 20 22 23 25 26 32 23 20 16 14 12 9 12 10 10 9 16 11 11 13 11 10 9 13 19 8 9 11 9 17 13 28 35 39 38 38 38 38 38 40 43 45 46 45
51 51 51 52 52 52 52 52 52 53 52 52 52 52 52 52 52 52 52 52 52 52 52 53 53 51 49 45 35 28 37 32 42 41 41 38 32 28 27 30 25 24 21 21 23 24 22 22 24 24 16 17 14 15 13 12 12 11 11 7 8 10 10 11 8 10 11 9 13 11 6 6 10 9 17 32 34 38 38 38 38 38 38 39 43 45 45 43
51 51 51 51 52 52 52 52 52 52 52 52 52 52 52 52 52 52 52 52 52 52 52 52 53 52 46 28 33 39 42 38 34 35 36 35 31 28 30 30 29 27 22 20 22 25 26 24 25 21 19 16 14 12 14 14 11 8 8 9 10 9 7 10 12 12 10 10 11 8 7 12 10 9 14 23 32 37 37 37 37 37 37 38 42 45 44 44
51 51 51 51 51 52 52 52 52 52 52 53 52 52 53 52 52 52 52 52 52 52 53 53 52 50 45 31 33 41 43 39 29 27 27 33 28 25 30 33 31 29 36 25 26 29 27 24 24 20 20 15 14 14 11 10 10 6 7 12 14 6 8 9 13 12 9 11 10 9 11 9 9 9 12 19 24 33 36 37 37 35 35 37 43 45 43 43
51 51 51 51 51 52 52 52 52 52 53 53 53 53 54 53 53 53 53 52 52 52 53 54 50 40 30 26 34 39 51 38 34 28 25 26 25 22 21 24 30 31 31 29 30 32 27 21 20 18 15 19 16 11 10 11 10 13 5 9 16 7 10 8 17 11 8 9 11 8 14 8 7 8 11 12 23 29 34 36 34 34 34 38 43 45 43 43
51 51 51 51 51 51 51 51 52 52 53 53 53 53 53 53 53 53 53 52 52 52 51 49 50 38 34 30 28 43 38 37 36 36 29 23 23 21 19 17 18 20 26 27 28 25 24 21 18 16 15 14 12 12 12 12 14 15 8 16 14 11 8 9 8 12 12 11 9 7 8 9 8 7 11 14 22 28 31 32 32 32 34 39 43 45 43 42
51 51 51 51 51 51 52 51 51 52 53 53 53 53 53 53 53 53 53 53 52 52 51 44 49 48 27 29 36 31 31 30 31 30 31 25 22 21 19 15 16 14 18 19 33 25 21 18 26 21 26 12 20 16 9 19 15 17 21 9 15 8 12 13 15 15 13 9 6 7 7 15 13 12 15 22 13 27 29 31 30 32 35 38 42 44 42 42
51 51 51 51 51 51 51 51 51 52 52 53 52 51 51 53 53 52 52 53 52 51 50 49 46 36 28 31 25 27 32 26 26 25 27 26 22 21 18 16 16 17 24 16 17 18 20 18 21 16 25 29 25 21 11 11 14 13 22 21 20 21 17 15 14 14 12 10 9 10 9 11 10 16 20 21 12 15 28 30 29 31 34 37 42 42 41 41
51 51 51 51 51 51 51 51 51 51 52 52 51 53 53 52 51 50 46 46 38 30 28 37 33 24 20 24 29 31 33 31 24 24 25 21 22 20 21 23 18 16 19 18 15 17 19 23 28 18 14 19 17 14 17 14 16 16 21 18 19 16 16 13 15 19 16 11 7 10 7 9 13 13 19 22 30 16 16 23 28 33 34 36 40 42 41 40
51 51 51 51 51 51 51 51 51 52 52 50 47 49 49 40 40 43 46 45 38 23 23 33 34 35 32 30 30 30 30 24 20 20 22 27 17 17 17 17 17 24 21 22 25 26 30 16 15 15 19 22 27 27 24 22 21 24 22 17 16 15 17 17 16 17 24 12 16 19 16 19 17 18 20 25 28 23 20 24 29 32 34 34 38 41 41 40
50 51 51 51 51 51 51 51 52 52 52 49 48 46 39 39 29 29 32 38 38 36 29 30 35 31 30 32 33 32 28 24 21 20 19 28 19 14 13 14 14 20 23 28 25 34 28 17 20 22 24 26 30 35 34 32 32 26 22 18 17 16 17 16 22 28 28 16 14 27 21 24 26 29 30 31 26 22 23 24 28 30 32 33 35 40 40 40
51 51 51 51 51 51 52 52 52 52 51 47 46 37 43 44 38 33 33 31 33 36 36 34 36 35 36 35 35 36 34 31 23 19 19 17 16 12 12 13 13 14 25 23 20 23 20 17 22 26 30 33 37 37 34 31 28 29 20 19 18 19 17 19 28 34 30 27 21 26 20 24 28 28 30 31 28 27 28 23 23 28 31 33 33 38 41 40
51 51 52 51 52 52 52 52 52 52 49 43 41 47 41 40 41 39 37 35 32 35 36 36 36 36 35 39 38 36 33 29 26 22 17 16 14 12 12 11 14 15 20 26 19 21 16 19 26 30 34 33 33 36 32 29 30 26 21 19 18 20 18 17 27 32 32 26 21 25 20 26 31 32 34 33 31 30 34 35 32 30 28 31 33 36 40 40
51 52 52 52 52 52 52 52 51 49 46 41 36 32 32 36 36 40 35 31 28 29 34 34 34 35 34 32 35 34 31 28 22 20 24 14 11 13 13 11 12 15 11 20 20 16 13 16 29 35 36 32 30 32 27 23 21 29 25 22 20 21 21 18 21 29 33 29 30 22 22 20 29 22 22 28 31 31 28 26 27 34 31 32 35 35 40 40
51 52 52 52 52 52 52 51 45 44 46 45 40 38 37 38 44 40 38 38 38 39 40 31 35 33 34 30 26 26 22 21 25 21 21 13 13 12 11 14 12 9 10 13 21 19 17 22 30 28 34 34 29 27 29 27 20 26 30 27 26 27 24 28 30 24 23 21 27 19 14 21 26 26 28 28 30 27 30 26 23 24 29 32 31 31 35 42
51 52 52 52 52 52 52 44 45 42 40 35 32 34 35 40 45 45 41 34 30 36 29 29 27 26 28 24 23 22 19 19 21 20 17 14 22 12 17 11 12 14 12 14 13 22 17 27 28 27 29 32 31 27 29 29 23 19 24 31 29 27 29 28 25 23 17 14 22 28 15 14 23 23 23 23 24 22 24 26 24 24 26 30 30 31 32 38
51 52 52 52 52 50 31 27 38 41 31 32 33 40 43 43 46 48 41 27 20 32 29 29 21 20 27 24 22 20 17 18 20 26 17 29 13 24 12 12 13 14 19 26 20 11 28 24 29 31 30 29 27 25 29 27 22 19 28 31 29 27 26 29 27 23 20 27 28 28 21 13 16 20 23 24 23 21 21 21 24 25 24 27 29 30 31 36
51 52 52 52 51 51 35 43 33 32 32 35 37 40 46 48 49 46 33 18 17 29 28 20 20 22 22 28 20 18 18 24 12 14 17 16 14 11 12 12 10 10 17 17 9 20 21 21 28 28 27 24 23 26 30 29 22 21 30 28 23 22 27 29 24 22 21 17 13 21 25 13 17 21 25 26 20 20 20 21 20 20 21 24 28 29 30 34
51 51 52 52 51 51 46 42 36 34 33 36 40 43 49 49 43 37 26 15 22 24 22 20 20 21 17 17 17 16 14 19 16 15 16 14 14 10 15 10 10 12 13 19 13 23 22 19 23 30 24 22 25 28 31 28 21 28 29 24 21 25 28 25 21 17 17 12 10 17 21 11 11 19 20 22 19 19 19 18 20 21 22 22 26 27 30 32
51 51 51 51 48 48 45 46 42 39 43 45 45 50 50 44 36 26 17 14 31 18 19 19 18 17 15 15 13 13 14 15 24 16 14 11 11 11 12 15 10 14 10 25 16 18 19 32 37 24 22 23 27 29 29 25 25 30 24 18 17 21 20 25 22 22 19 5 11 17 21 13 8 15 19 16 19 22 21 20 21 21 21 22 25 26 29 33
51 51 51 51 39 47 45 40 45 48 47 49 50 48 44 38 29 19 13 17 30 22 19 18 16 15 11 12 12 14 13 14 14 16 12 12 12 11 11 8 21 20 23 23 15 17 17 15 24 24 30 23 23 19 18 21 22 20 22 19 16 17 17 16 18 19 6 7 14 17 22 19 10 12 18 22 24 25 21 18 19 20 20 20 25 28 27 32
50 50 51 48 45 47 39 35 40 49 50 50 47 43 39 29 28 18 13 28 20 19 12 7 11 13 14 15 12 14 14 12 16 18 12 10 14 11 10 11 16 8 15 12 8 20 14 10 13 16 34 19 15 15 13 13 14 16 20 19 16 13 12 5 10 4 4 9 10 18 22 16 14 13 16 17 17 18 21 20 21 21 20 22 25 29 28 28
49 50 51 50 51 46 47 40 42 48 49 47 44 38 29 20 13 22 24 25 15 20 11 12 8 7 8 11 10 12 13 14 19 13 19 11 10 14 14 9 18 17 10 20 11 13 13 21 17 16 14 23 15 15 12 9 9 12 13 16 13 7 2 1 4 8 10 13 20 18 23 16 18 19 23 21 22 24 25 25 25 25 26 26 26 24 25 27
49 50 48 50 49 46 48 52 50 50 47 46 38 31 25 20 17 42 26 25 20 13 15 7 5 10 8 7 10 11 10 13 13 17 12 14 11 13 17 12 12 14 21 21 10 14 8 10 15 17 16 20 14 14 14 17 14 11 14 13 14 13 7 2 7 1 4 7 17 24 14 15 13 16 24 26 27 27 28 26 28 29 27 27 27 26 26 28
49 50 47 48 50 50 48 47 47 50 45 40 32 27 18 18 23 22 20 18 17 13 8 10 10 9 13 9 13 13 15 15 15 15 16 13 11 17 18 15 13 19 21 9 19 12 7 11 16 19 17 15 13 13 13 10 10 18 16 13 12 12 18 7 13 12 13 11 10 13 14 19 19 22 26 26 27 27 29 28 28 26 26 25 26 26 27 30
48 47 49 49 53 54 52 50 49 45 41 33 27 23 14 24 19 22 18 19 19 10 10 12 11 10 13 18 21 13 17 16 13 17 22 16 19 15 18 17 17 13 14 12 20 10 11 11 16 19 14 15 15 17 12 7 9 18 9 14 14 19 18 13 15 19 14 15 7 12 17 18 22 17 22 25 25 25 25 24 26 26 25 25 26 26 26 26
48 49 45 49 54 56 55 52 47 45 39 32 26 19 27 31 27 22 23 16 14 12 11 11 13 9 10 11 17 16 12 18 18 12 11 18 18 18 16 18 16 16 13 17 13 20 15 15 23 14 14 16 16 15 14 15 14 15 12 14 19 23 23 15 7 12 7 4 9 14 12 15 12 12 21 24 24 25 25 24 24 25 25 24 26 27 27 25
47 48 51 52 50 45 48 47 46 44 39 33 27 38 36 24 20 17 19 15 16 15 16 12 15 10 10 12 13 12 17 10 14 11 13 17 13 21 19 20 20 21 23 21 12 17 19 11 15 17 15 15 19 14 14 17 18 15 16 22 18 14 13 23 17 6 4 3 3 14 16 14 15 16 20 21 23 23 25 25 23 23 24 25 25 24 24 26
47 45 41 44 45 44 49 49 46 43 37 32 26 27 31 31 28 17 16 16 17 15 15 13 13 16 12 14 14 15 13 12 13 15 9 15 11 22 21 21 19 21 27 19 19 22 25 12 17 21 17 18 20 15 14 21 21 22 18 17 21 18 18 13 15 17 13 3 4 10 12 8 17 17 21 21 23 24 23 24 24 24 25 27 25 24 24 25
45 40 39 44 43 44 49 47 43 39 34 28 29 30 32 19 19 18 13 17 16 17 19 17 12 13 19 16 15 13 16 10 11 14 9 20 10 14 20 22 21 20 25 29 24 27 17 20 10 18 21 18 13 21 21 18 20 20 19 20 19 21 20 14 18 13 12 4 4 5 3 11 18 22 23 22 23 24 24 23 25 26 26 25 26 27 25 24
45 39 39 44 40 42 41 38 34 34 32 35 35 29 21 18 20 14 13 18 16 20 19 19 20 15 18 17 16 17 16 15 13 11 10 12 11 9 23 21 25 19 24 26 25 28 19 18 14 22 18 16 17 20 20 21 24 24 20 19 12 14 14 12 14 20 18 12 8 4 9 17 21 32 28 24 25 25 24 23 24 24 25 26 26 26 25 25
34 26 33 39 39 37 32 23 27 34 28 21 20 22 17 35 16 12 15 18 18 15 18 21 20 20 21 19 17 13 12 12 12 11 11 10 8 13 20 24 23 22 21 21 24 30 26 24 21 15 19 18 18 20 21 20 20 21 16 14 16 19 19 14 8 14 19 18 17 16 9 17 26 31 29 28 26 24 24 24 24 25 25 25 26 26 27 27
33 27 36 42 37 28 28 25 31 27 23 22 23 20 21 16 18 14 16 17 16 18 22 20 20 18 19 13 14 10 11 12 11 10 12 8 11 22 24 26 25 21 24 24 23 24 47 17 17 19 21 21 19 19 22 22 14 13 16 23 19 12 15 18 18 19 17 15 15 12 11 18 25 31 30 28 27 28 26 25 24 25 26 27 27 28 29 30
35 37 38 42 37 31 26 17 20 21 28 30 25 20 21 19 16 16 17 17 17 21 20 21 16 13 16 14 14 12 13 10 15 12 14 13 14 21 27 26 27 23 22 22 20 30 14 22 20 14 11 14 15 16 16 20 20 18 14 17 16 16 17 21 21 22 13 18 17 15 12 11 24 32 25 22 22 22 22 23 27 25 27 28 29 30 31 32
37 37 40 40 34 33 24 27 23 19 26 26 24 24 23 19 17 20 19 17 19 19 21 19 17 19 16 16 15 14 15 12 15 20 17 21 23 23 27 27 27 30 32 36 35 29 17 22 18 11 8 5 2 2 7 10 15 19 18 17 14 13 17 15 7 15 7 15 18 12 10 18 23 26 28 22 23 22 23 25 28 28 28 29 30 31 32 33
31 17 29 28 29 30 29 34 30 25 22 25 22 26 24 22 23 23 19 22 20 23 17 18 18 20 21 21 20 21 21 24 18 19 26 26 26 26 26 27 29 33 40 40 41 31 20 24 21 18 15 13 13 13 17 23 17 14 18 16 15 20 21 18 15 9 9 13 13 16 16 15 14 19 21 21 23 23 25 27 27 28 30 31 31 33 33 36
36 26 22 25 26 27 25 29 30 29 24 27 23 25 24 25 25 23 21 20 20 22 24 20 19 20 20 22 20 21 25 25 27 26 27 28 26 27 26 27 27 34 36 32 37 23 21 15 21 21 19 16 15 15 19 20 16 17 16 17 17 20 20 17 10 13 16 11 10 18 21 14 16 18 20 22 24 24 26 27 29 30 31 31 31 33 37 35
23 24 30 28 21 22 26 25 30 30 28 28 27 28 25 26 26 22 24 20 23 21 21 20 20 18 19 22 22 18 23 24 25 20 28 27 24 24 21 23 26 30 28 24 32 24 20 15 20 21 19 20 19 18 19 19 17 16 15 17 16 19 19 16 14 18 18 12 11 16 19 15 16 20 21 23 25 24 27 28 30 31 31 32 31 33 34 35
32 31 32 34 24 28 24 27 32 29 27 31 30 27 24 23 22 23 22 21 23 23 21 16 20 18 20 23 23 20 23 16 14 23 22 21 22 25 21 24 27 23 20 23 26 27 22 17 22 20 18 18 17 19 20 18 16 15 17 16 17 19 19 19 19 20 19 17 17 18 17 17 18 23 24 26 28 28 29 31 31 31 32 33 33 33 34 34
29 30 30 33 31 30 31 30 29 28 24 30 24 27 24 23 21 20 20 18 15 21 24 23 19 20 22 23 26 21 22 22 20 15 23 19 21 24 21 23 22 21 19 22 26 29 24 21 28 23 19 18 18 21 17 17 18 17 16 16 18 18 18 19 19 19 21 19 19 16 14 16 20 24 26 28 32 32 32 32 32 32 32 33 33 33 33 33
35 35 34 31 26 29 32 29 28 26 22 25 26 28 26 22 22 21 21 21 21 22 25 21 20 22 22 22 25 23 24 27 26 22 23 20 16 24 17 20 21 19 19 20 28 28 25 21 26 24 21 21 21 17 16 18 17 16 16 18 16 16 12 16 14 19 16 14 14 13 11 12 20 25 30 31 32 32 31 31 32 32 32 33 32 32 32 32
36 36 36 30 24 34 26 28 27 25 22 24 30 28 24 23 21 23 18 22 22 22 25 23 28 24 21 23 23 23 25 27 27 26 22 22 19 21 21 20 19 19 22 21 25 22 24 22 20 19 19 21 21 19 19 19 17 16 17 17 17 17 17 20 20 22 20 18 14 10 16 18 24 31 30 30 30 30 31 31 31 32 31 32 32 32 32 33